Time,TemperatureF,DewpointF,PressureIn,WindDirection,WindDirectionDegrees,WindSpeedMPH,WindSpeedGustMPH,Humidity,HourlyPrecipIn,Conditions,Clouds,dailyrainin,SoftwareType,DateUTC
2013-05-27 00:03:00,57.0,38.0,-100.00,SE,145,1.0,2.0,49,0.00,,,-99.99,,2013-05-27 04:03:00,
2013-05-27 00:12:00,58.0,39.0,-100.00,East,100,2.0,3.0,49,0.00,,,-99.99,,2013-05-27 04:12:00,
2013-05-27 00:23:00,58.0,38.0,-100.00,SE,145,2.0,3.0,47,0.00,,,-99.99,,2013-05-27 04:23:00,
2013-05-27 00:33:00,58.0,38.0,-100.00,SE,145,2.0,3.0,47,0.00,,,-99.99,,2013-05-27 04:33:00,
2013-05-27 00:43:00,59.0,38.0,-100.00,ESE,115,2.0,4.0,45,0.00,,,-99.99,,2013-05-27 04:43:00,
2013-05-27 00:52:00,59.0,37.0,-100.00,East,100,3.0,5.0,44,0.00,,,-99.99,,2013-05-27 04:52:00,
2013-05-27 01:02:00,60.0,37.0,-100.00,East,85,2.0,6.0,43,0.00,,,-99.99,,2013-05-27 05:02:00,
2013-05-27 01:12:00,60.0,37.0,-100.00,ESE,115,2.0,6.0,42,0.00,,,-99.99,,2013-05-27 05:12:00,
2013-05-27 01:22:00,60.0,37.0,-100.00,ESE,115,2.0,6.0,42,0.00,,,-99.99,,2013-05-27 05:22:00,
2013-05-27 01:32:00,60.0,37.0,-100.00,East,90,3.0,6.0,42,0.00,,,-99.99,,2013-05-27 05:32:00,
2013-05-27 01:42:00,59.0,37.0,-100.00,ESE,115,3.0,7.0,42,0.00,,,-99.99,,2013-05-27 05:42:00,
2013-05-27 01:52:00,58.0,36.0,-100.00,East,85,2.0,4.0,43,0.00,,,-99.99,,2013-05-27 05:52:00,
2013-05-27 02:02:00,58.0,36.0,-100.00,NE,55,1.0,5.0,43,0.00,,,-99.99,,2013-05-27 06:02:00,
2013-05-27 02:11:00,58.0,36.0,-100.00,NE,50,1.0,4.0,43,0.00,,,-99.99,,2013-05-27 06:11:00,
2013-05-27 02:22:00,57.0,36.0,-100.00,East,85,1.0,4.0,45,0.00,,,-99.99,,2013-05-27 06:22:00,
2013-05-27 02:32:00,57.0,37.0,-100.00,NE,55,2.0,4.0,46,0.00,,,-99.99,,2013-05-27 06:32:00,
2013-05-27 02:42:00,56.0,37.0,-100.00,ENE,60,2.0,5.0,47,0.00,,,-99.99,,2013-05-27 06:42:00,
2013-05-27 02:52:00,56.0,37.0,-100.00,NE,40,2.0,5.0,47,0.00,,,-99.99,,2013-05-27 06:52:00,
2013-05-27 03:02:00,56.0,37.0,-100.00,ENE,70,1.0,4.0,47,0.00,,,-99.99,,2013-05-27 07:02:00,
2013-05-27 03:11:00,56.0,37.0,-100.00,East,80,1.0,4.0,48,0.00,,,-99.99,,2013-05-27 07:11:00,
2013-05-27 03:21:00,56.0,38.0,-100.00,East,80,1.0,3.0,49,0.00,,,-99.99,,2013-05-27 07:21:00,
2013-05-27 03:32:00,56.0,38.0,-100.00,NE,40,1.0,4.0,49,0.00,,,-99.99,,2013-05-27 07:32:00,
2013-05-27 03:42:00,56.0,38.0,-100.00,NE,40,1.0,4.0,50,0.00,,,-99.99,,2013-05-27 07:42:00,
2013-05-27 03:52:00,56.0,38.0,-100.00,NE,45,2.0,4.0,51,0.00,,,-99.99,,2013-05-27 07:52:00,
2013-05-27 04:02:00,56.0,38.0,-100.00,NE,45,2.0,4.0,51,0.00,,,-99.99,,2013-05-27 08:02:00,
2013-05-27 04:11:00,56.0,39.0,-100.00,NE,40,1.0,5.0,53,0.00,,,-99.99,,2013-05-27 08:11:00,
2013-05-27 04:22:00,55.0,39.0,-100.00,NE,45,2.0,5.0,54,0.00,,,-99.99,,2013-05-27 08:22:00,
2013-05-27 04:33:00,55.0,39.0,-100.00,NE,55,1.0,3.0,54,0.00,,,-99.99,,2013-05-27 08:33:00,
2013-05-27 04:42:00,55.0,40.0,-100.00,NE,35,2.0,4.0,55,0.00,,,-99.99,,2013-05-27 08:42:00,
2013-05-27 04:52:00,55.0,40.0,-100.00,NE,35,2.0,4.0,55,0.00,,,-99.99,,2013-05-27 08:52:00,
2013-05-27 05:02:00,55.0,40.0,-100.00,NE,45,1.0,6.0,56,0.00,,,-99.99,,2013-05-27 09:02:00,
2013-05-27 05:11:00,55.0,40.0,-100.00,East,85,0.0,5.0,57,0.00,,,-99.99,,2013-05-27 09:11:00,
2013-05-27 05:21:00,55.0,41.0,-100.00,ENE,60,1.0,4.0,58,0.00,,,-99.99,,2013-05-27 09:21:00,
2013-05-27 05:33:00,55.0,41.0,-100.00,East,85,2.0,4.0,60,0.00,,,-99.99,,2013-05-27 09:33:00,
2013-05-27 05:42:00,55.0,41.0,-100.00,ENE,75,0.0,3.0,60,0.00,,,-99.99,,2013-05-27 09:42:00,
2013-05-27 05:53:00,55.0,42.0,-100.00,NE,40,1.0,3.0,60,0.00,,,-99.99,,2013-05-27 09:53:00,
2013-05-27 06:03:00,55.0,42.0,-100.00,NE,55,1.0,4.0,61,0.00,,,-99.99,,2013-05-27 10:03:00,
2013-05-27 06:12:00,55.0,42.0,-100.00,NE,45,1.0,3.0,60,0.00,,,-99.99,,2013-05-27 10:12:00,
2013-05-27 06:22:00,55.0,42.0,-100.00,ESE,110,1.0,3.0,60,0.00,,,-99.99,,2013-05-27 10:22:00,
2013-05-27 06:32:00,55.0,42.0,-100.00,ESE,105,4.0,6.0,59,0.00,,,-99.99,,2013-05-27 10:32:00,
2013-05-27 06:42:00,56.0,41.0,-100.00,ESE,105,3.0,6.0,58,0.00,,,-99.99,,2013-05-27 10:42:00,
2013-05-27 06:52:00,56.0,41.0,-100.00,East,80,4.0,6.0,56,0.00,,,-99.99,,2013-05-27 10:52:00,
2013-05-27 07:02:00,56.0,41.0,-100.00,East,95,3.0,6.0,56,0.00,,,-99.99,,2013-05-27 11:02:00,
2013-05-27 07:11:00,56.0,41.0,-100.00,ESE,110,5.0,9.0,56,0.00,,,-99.99,,2013-05-27 11:11:00,
2013-05-27 07:22:00,56.0,41.0,-100.00,East,100,4.0,7.0,55,0.00,,,-99.99,,2013-05-27 11:22:00,
2013-05-27 07:32:00,56.0,41.0,-100.00,East,85,4.0,8.0,55,0.00,,,-99.99,,2013-05-27 11:32:00,
2013-05-27 07:42:00,56.0,41.0,-100.00,East,85,4.0,7.0,58,1.10,,,-99.99,,2013-05-27 11:42:00,
2013-05-27 07:52:00,55.0,42.0,-100.00,ESE,105,2.0,6.0,63,3.39,,,-99.99,,2013-05-27 11:52:00,
2013-05-27 08:01:00,53.0,44.0,-100.00,ESE,110,2.0,6.0,70,1.10,,,-99.99,,2013-05-27 12:01:00,
2013-05-27 08:11:00,53.0,46.0,-100.00,East,85,4.0,6.0,77,1.10,,,-99.99,,2013-05-27 12:11:00,
2013-05-27 08:22:00,53.0,46.0,-100.00,SE,130,1.0,5.0,79,1.69,,,-99.99,,2013-05-27 12:22:00,
2013-05-27 08:32:00,53.0,48.0,-100.00,East,100,1.0,3.0,84,1.10,,,-99.99,,2013-05-27 12:32:00,
2013-05-27 08:42:00,52.0,49.0,-100.00,SE,125,1.0,6.0,87,0.55,,,-99.99,,2013-05-27 12:42:00,
2013-05-27 08:52:00,52.0,49.0,-100.00,SE,130,2.0,5.0,87,1.69,,,-99.99,,2013-05-27 12:52:00,
2013-05-27 09:02:00,52.0,49.0,-100.00,SE,130,2.0,5.0,87,1.69,,,-99.99,,2013-05-27 13:02:00,
2013-05-27 09:11:00,52.0,49.0,-100.00,SSE,165,3.0,6.0,89,1.10,,,-99.99,,2013-05-27 13:11:00,
2013-05-27 09:22:00,52.0,50.0,-100.00,ESE,120,4.0,7.0,91,0.55,,,-99.99,,2013-05-27 13:22:00,
2013-05-27 09:32:00,52.0,50.0,-100.00,SSE,150,3.0,7.0,92,0.55,,,-99.99,,2013-05-27 13:32:00,
2013-05-27 09:42:00,53.0,51.0,-100.00,East,100,3.0,9.0,93,1.10,,,-99.99,,2013-05-27 13:42:00,
2013-05-27 09:52:00,53.0,51.0,-100.00,ESE,120,3.0,6.0,94,1.10,,,-99.99,,2013-05-27 13:52:00,
2013-05-27 10:02:00,53.0,51.0,-100.00,ESE,105,3.0,6.0,95,2.24,,,-99.99,,2013-05-27 14:02:00,
2013-05-27 10:11:00,53.0,51.0,-100.00,ESE,115,4.0,7.0,96,1.69,,,-99.99,,2013-05-27 14:11:00,
2013-05-27 10:22:00,53.0,52.0,-100.00,SE,125,4.0,8.0,97,1.69,,,-99.99,,2013-05-27 14:22:00,
2013-05-27 10:32:00,53.0,52.0,-100.00,East,95,5.0,8.0,97,1.10,,,-99.99,,2013-05-27 14:32:00,
2013-05-27 10:42:00,53.0,52.0,-100.00,East,80,6.0,7.0,98,1.69,,,-99.99,,2013-05-27 14:42:00,
2013-05-27 10:52:00,53.0,52.0,-100.00,ESE,115,6.0,9.0,98,1.69,,,-99.99,,2013-05-27 14:52:00,
2013-05-27 11:01:00,53.0,53.0,-100.00,ESE,105,4.0,8.0,99,1.69,,,-99.99,,2013-05-27 15:01:00,
2013-05-27 11:11:00,53.0,53.0,-100.00,ENE,75,5.0,9.0,99,1.10,,,-99.99,,2013-05-27 15:11:00,
2013-05-27 11:21:00,53.0,53.0,-100.00,ESE,115,6.0,12.0,99,2.24,,,-99.99,,2013-05-27 15:21:00,
2013-05-27 11:33:00,53.0,53.0,-100.00,East,90,6.0,11.0,99,1.69,,,-99.99,,2013-05-27 15:33:00,
2013-05-27 11:43:00,53.0,53.0,-100.00,East,85,6.0,11.0,99,1.69,,,-99.99,,2013-05-27 15:43:00,
2013-05-27 11:53:00,53.0,53.0,-100.00,SE,125,6.0,12.0,99,0.00,,,-99.99,,2013-05-27 15:53:00,
2013-05-27 12:03:00,53.0,53.0,-100.00,SE,125,6.0,12.0,99,0.00,,,-99.99,,2013-05-27 16:03:00,
2013-05-27 12:12:00,53.0,53.0,-100.00,ESE,110,7.0,-999.0,99,0.00,,,-99.99,,2013-05-27 16:12:00,
2013-05-27 12:23:00,53.0,53.0,-100.00,ESE,105,6.0,9.0,99,0.55,,,-99.99,,2013-05-27 16:23:00,
2013-05-27 12:33:00,53.0,53.0,-100.00,ESE,105,4.0,9.0,99,1.10,,,-99.99,,2013-05-27 16:33:00,
2013-05-27 12:42:00,53.0,53.0,-100.00,East,95,6.0,7.0,99,1.10,,,-99.99,,2013-05-27 16:42:00,
2013-05-27 12:52:00,54.0,54.0,-100.00,East,80,6.0,12.0,99,0.00,,,-99.99,,2013-05-27 16:52:00,
2013-05-27 13:02:00,54.0,54.0,-100.00,East,85,4.0,12.0,99,0.55,,,-99.99,,2013-05-27 17:02:00,
2013-05-27 13:11:00,54.0,54.0,-100.00,ENE,75,6.0,12.0,99,0.00,,,-99.99,,2013-05-27 17:11:00,
2013-05-27 13:22:00,54.0,54.0,-100.00,ESE,105,5.0,12.0,99,0.00,,,-99.99,,2013-05-27 17:22:00,
2013-05-27 13:32:00,54.0,54.0,-100.00,East,80,7.0,10.0,98,0.00,,,-99.99,,2013-05-27 17:32:00,
2013-05-27 13:43:00,54.0,54.0,-100.00,East,90,4.0,10.0,97,1.69,,,-99.99,,2013-05-27 17:43:00,
2013-05-27 13:52:00,54.0,53.0,-100.00,East,90,7.0,11.0,97,2.24,,,-99.99,,2013-05-27 17:52:00,
2013-05-27 14:02:00,54.0,54.0,-100.00,ESE,120,4.0,9.0,97,2.83,,,-99.99,,2013-05-27 18:02:00,
2013-05-27 14:11:00,55.0,54.0,-100.00,East,85,3.0,7.0,98,2.24,,,-99.99,,2013-05-27 18:11:00,
2013-05-27 14:22:00,54.0,54.0,-100.00,East,100,5.0,9.0,98,1.69,,,-99.99,,2013-05-27 18:22:00,
2013-05-27 14:32:00,54.0,54.0,-100.00,ESE,105,6.0,11.0,99,1.10,,,-99.99,,2013-05-27 18:32:00,
2013-05-27 14:42:00,54.0,54.0,-100.00,East,100,7.0,14.0,99,1.10,,,-99.99,,2013-05-27 18:42:00,
2013-05-27 14:52:00,54.0,54.0,-100.00,East,95,7.0,11.0,99,0.55,,,-99.99,,2013-05-27 18:52:00,
2013-05-27 15:01:00,55.0,55.0,-100.00,ESE,115,3.0,14.0,99,0.00,,,-99.99,,2013-05-27 19:01:00,
2013-05-27 15:11:00,55.0,55.0,-100.00,East,100,6.0,15.0,99,1.10,,,-99.99,,2013-05-27 19:11:00,
2013-05-27 15:22:00,54.0,54.0,-100.00,East,90,4.0,12.0,99,0.55,,,-99.99,,2013-05-27 19:22:00,
2013-05-27 15:32:00,54.0,54.0,-100.00,ESE,105,6.0,12.0,99,0.55,,,-99.99,,2013-05-27 19:32:00,
2013-05-27 15:42:00,54.0,54.0,-100.00,East,80,5.0,11.0,99,1.10,,,-99.99,,2013-05-27 19:42:00,
2013-05-27 15:52:00,54.0,54.0,-100.00,East,80,7.0,14.0,99,2.24,,,-99.99,,2013-05-27 19:52:00,
2013-05-27 16:02:00,54.0,54.0,-100.00,ENE,60,4.0,10.0,99,5.67,,,-99.99,,2013-05-27 20:02:00,
2013-05-27 16:11:00,54.0,54.0,-100.00,NE,45,2.0,9.0,99,0.00,,,-99.99,,2013-05-27 20:11:00,
2013-05-27 16:22:00,54.0,54.0,-100.00,East,90,6.0,11.0,99,10.20,,,-99.99,,2013-05-27 20:22:00,
2013-05-27 16:32:00,54.0,54.0,-100.00,East,85,4.0,12.0,99,0.00,,,-99.99,,2013-05-27 20:32:00,
2013-05-27 16:42:00,54.0,54.0,-100.00,East,90,6.0,10.0,99,0.00,,,-99.99,,2013-05-27 20:42:00,
2013-05-27 16:52:00,54.0,54.0,-100.00,ENE,70,4.0,12.0,99,1.69,,,-99.99,,2013-05-27 20:52:00,
2013-05-27 17:01:00,54.0,54.0,-100.00,ESE,105,6.0,12.0,99,0.00,,,-99.99,,2013-05-27 21:01:00,
2013-05-27 17:12:00,54.0,54.0,-100.00,East,95,6.0,12.0,99,0.00,,,-99.99,,2013-05-27 21:12:00,
2013-05-27 17:21:00,54.0,54.0,-100.00,East,85,5.0,13.0,99,0.00,,,-99.99,,2013-05-27 21:21:00,
2013-05-27 17:33:00,53.0,53.0,-100.00,NE,40,3.0,11.0,99,0.55,,,-99.99,,2013-05-27 21:33:00,
2013-05-27 17:43:00,54.0,54.0,-100.00,ENE,60,2.0,9.0,99,0.55,,,-99.99,,2013-05-27 21:43:00,
2013-05-27 17:53:00,54.0,54.0,-100.00,ESE,105,6.0,12.0,99,0.00,,,-99.99,,2013-05-27 21:53:00,
2013-05-27 18:02:00,54.0,54.0,-100.00,East,95,4.0,11.0,99,0.00,,,-99.99,,2013-05-27 22:02:00,
2013-05-27 18:12:00,54.0,54.0,-100.00,East,80,4.0,11.0,99,0.00,,,-99.99,,2013-05-27 22:12:00,
2013-05-27 18:22:00,54.0,54.0,-100.00,ESE,105,3.0,11.0,99,0.00,,,-99.99,,2013-05-27 22:22:00,
2013-05-27 18:33:00,54.0,54.0,-100.00,East,100,3.0,11.0,99,0.00,,,-99.99,,2013-05-27 22:33:00,
2013-05-27 18:42:00,54.0,54.0,-100.00,East,85,4.0,15.0,99,0.00,,,-99.99,,2013-05-27 22:42:00,
2013-05-27 18:52:00,54.0,54.0,-100.00,East,95,4.0,16.0,99,4.53,,,-99.99,,2013-05-27 22:52:00,
2013-05-27 19:02:00,54.0,54.0,-100.00,East,95,6.0,12.0,99,0.00,,,-99.99,,2013-05-27 23:02:00,
2013-05-27 19:12:00,54.0,54.0,-100.00,East,90,7.0,12.0,99,0.00,,,-99.99,,2013-05-27 23:12:00,
2013-05-27 19:22:00,54.0,54.0,-100.00,East,85,6.0,12.0,99,0.00,,,-99.99,,2013-05-27 23:22:00,
2013-05-27 19:32:00,54.0,54.0,-100.00,NE,45,4.0,13.0,99,0.00,,,-99.99,,2013-05-27 23:32:00,
2013-05-27 19:42:00,54.0,54.0,-100.00,East,100,4.0,12.0,99,1.69,,,-99.99,,2013-05-27 23:42:00,
2013-05-27 19:52:00,54.0,54.0,-100.00,ENE,65,4.0,9.0,99,10.75,,,-99.99,,2013-05-27 23:52:00,
2013-05-27 20:01:00,54.0,54.0,-100.00,ESE,105,5.0,10.0,99,0.55,,,-99.99,,2013-05-28 00:01:00,
2013-05-27 20:11:00,54.0,54.0,-100.00,East,95,5.0,10.0,99,0.55,,,-99.99,,2013-05-28 00:11:00,
2013-05-27 20:21:00,54.0,54.0,-100.00,NNE,30,2.0,11.0,99,0.00,,,-99.99,,2013-05-28 00:21:00,
2013-05-27 20:32:00,54.0,54.0,-100.00,NE,55,3.0,9.0,99,0.00,,,-99.99,,2013-05-28 00:32:00,
2013-05-27 20:42:00,54.0,54.0,-100.00,NE,55,2.0,10.0,99,0.00,,,-99.99,,2013-05-28 00:42:00,
2013-05-27 20:52:00,55.0,55.0,-100.00,NE,45,1.0,7.0,99,0.00,,,-99.99,,2013-05-28 00:52:00,
2013-05-27 21:01:00,55.0,55.0,-100.00,ENE,75,4.0,8.0,99,0.00,,,-99.99,,2013-05-28 01:01:00,
2013-05-27 21:11:00,55.0,55.0,-100.00,East,90,4.0,11.0,99,0.00,,,-99.99,,2013-05-28 01:11:00,
2013-05-27 21:22:00,55.0,55.0,-100.00,East,80,4.0,9.0,99,0.00,,,-99.99,,2013-05-28 01:22:00,
2013-05-27 21:32:00,55.0,55.0,-100.00,East,95,2.0,7.0,99,0.00,,,-99.99,,2013-05-28 01:32:00,
2013-05-27 21:41:00,55.0,55.0,-100.00,ENE,70,4.0,8.0,99,0.00,,,-99.99,,2013-05-28 01:41:00,
2013-05-27 21:52:00,55.0,55.0,-100.00,NE,55,4.0,7.0,99,0.00,,,-99.99,,2013-05-28 01:52:00,
2013-05-27 22:02:00,55.0,55.0,-100.00,ENE,60,4.0,9.0,99,0.00,,,-99.99,,2013-05-28 02:02:00,
2013-05-27 22:11:00,55.0,55.0,-100.00,East,100,2.0,6.0,99,0.00,,,-99.99,,2013-05-28 02:11:00,
2013-05-27 22:22:00,55.0,55.0,-100.00,East,95,4.0,8.0,99,0.00,,,-99.99,,2013-05-28 02:22:00,
2013-05-27 22:32:00,55.0,55.0,-100.00,NE,55,4.0,9.0,99,0.00,,,-99.99,,2013-05-28 02:32:00,
2013-05-27 22:42:00,55.0,55.0,-100.00,ESE,105,2.0,6.0,99,0.00,,,-99.99,,2013-05-28 02:42:00,
2013-05-27 22:52:00,55.0,55.0,-100.00,ENE,60,3.0,7.0,99,0.00,,,-99.99,,2013-05-28 02:52:00,
2013-05-27 23:01:00,55.0,55.0,-100.00,East,90,5.0,9.0,99,0.00,,,-99.99,,2013-05-28 03:01:00,
2013-05-27 23:11:00,55.0,55.0,-100.00,East,85,2.0,7.0,99,0.00,,,-99.99,,2013-05-28 03:11:00,
2013-05-27 23:21:00,55.0,55.0,-100.00,East,95,4.0,10.0,99,1.69,,,-99.99,,2013-05-28 03:21:00,
2013-05-27 23:33:00,55.0,55.0,-100.00,ENE,75,4.0,9.0,99,0.55,,,-99.99,,2013-05-28 03:33:00,
2013-05-27 23:43:00,55.0,55.0,-100.00,East,85,3.0,8.0,99,0.55,,,-99.99,,2013-05-28 03:43:00,
2013-05-27 23:53:00,55.0,55.0,-100.00,East,100,4.0,7.0,99,1.10,,,-99.99,,2013-05-28 03:53:00,